Regional Weather Roundup
Issued by NWS

Home | Current Version | Previous Version | Text Only | Print | Product List | Glossary Off
Versions: 1 2 3 4 5 6 7 8 9 10 11 12 13 14 15 16 17 18 19 20 21 22 23 24 25 26 27 28 29 30 31 32 33 34 35 36 37 38 39 40 41 42 43 44 45 46 47 48 49 50

000
ASUS43 KDMX 031908
RWRIA

WEATHER ROUNDUP FOR IOWA
NATIONAL WEATHER SERVICE DES MOINES IA
200 PM CDT TUE MAY 03 2016

NOTE: "FAIR" INDICATES FEW OR NO CLOUDS BELOW 12,000 FEET WITH NO
SIGNIFICANT WEATHER AND/OR OBSTRUCTIONS TO VISIBILITY.

* - THESE STATIONS ARE NOT NWS STATIONS...THUS NOT UNDER NWS
QUALITY CONTROL.  THEY ALSO DO NOT REPORT WEATHER SUCH
AS PRECIPITATION OR FOG.

IAZ001>003-012>014-020>022-031>034-043>046-032000-
   NORTHWEST IOWA

CITY           SKY/WX    TMP DP  RH WIND       PRES   REMARKS
CARROLL *      PTSUNNY   64  45  48 W14G23    29.95F
CHEROKEE *     PTSUNNY   64  45  48 W16       29.94F
DENISON *      PTSUNNY   66  43  42 NW18G25   29.95F
LE MARS *      MOSUNNY   66  45  45 W18G28    29.96F
ORANGE CITY *  MOSUNNY   64  48  55 W22       29.94F
SHELDON *      MOSUNNY   64  45  48 W17G28    29.92F
SIOUX CITY     MOSUNNY   67  45  45 NW16G24   29.96F
SPENCER        MOSUNNY   66  44  45 W20       29.92F
STORM LAKE *     N/A     66  43  42 W21G26    29.95F
$$

IAZ055>058-069>071-079>083-090>094-032000-
   SOUTHWEST IOWA

CITY           SKY/WX    TMP DP  RH WIND       PRES   REMARKS
ATLANTIC *     PTSUNNY   64  41  42 W10G20    29.99F
AUDUBON *      MOSUNNY   66  43  42 W8G17     29.99F
CLARINDA *       N/A    N/A N/A N/A MISG        N/A
COUNCIL BLFS * MOSUNNY   66  41  39 NW10G17   30.00F
CRESTON *      MOSUNNY   64  43  45 W14G22    30.00F
HARLAN  *      MOSUNNY   66  43  42 W15G25    30.02F
LAMONI         MOSUNNY   65  45  48 W14       29.99F
SHENANDOAH *   MOSUNNY   68  45  42 W10       30.01F
$$

IAZ047>049-059>061-072>074-084-032000-
   CENTRAL IOWA

CITY           SKY/WX    TMP DP  RH WIND       PRES   REMARKS
AMES           PTSUNNY   65  41  41 W15       29.94F
ANKENY *       MOSUNNY   66  41  39 W16       29.95F
BOONE *        PTSUNNY   66  43  42 W16G22    29.94F
CHARITON *     MOSUNNY   66  41  39 W14G20    29.97F
DES MOINES     PTSUNNY   69  37  30 W12G23    29.96F
GRINNELL*      MOSUNNY   64  41  42 W10G22    29.95F
KNOXVILLE *    MOSUNNY   66  39  37 W10G22    29.95F
MARSHALLTOWN   MOSUNNY   66  40  38 W14       29.92F
NEWTON *       PTSUNNY   66  41  39 W13       29.94F
$$

IAZ004>006-015-016-023>025-035-036-032000-
   NORTH CENTRAL IOWA

CITY           SKY/WX    TMP DP  RH WIND       PRES   REMARKS
ALGONA *       MOSUNNY   66  43  42 W18G28    29.90F
CLARION *      MOSUNNY   66  41  39 W18G29    29.91F
ESTHERVILLE    PTSUNNY   64  47  53 W23G31    29.90F
FORT DODGE *   PTSUNNY   66  45  45 W17G23    29.93F
MASON CITY     CLOUDY    67  41  38 W14G28    29.89F
FOREST CITY *  MOSUNNY   64  36  34 W12G23    29.88F
WEBSTER CITY * PTSUNNY   68  43  40 W20G28    29.91F
IOWA FALLS *   PTSUNNY   66  39  37 W18G24    29.93F
$$

IAZ007>011-017>019-026>030-037>042-050>054-066-032000-
   NORTHEAST IOWA

CITY           SKY/WX    TMP DP  RH WIND       PRES   REMARKS
CEDAR RAPIDS   MOSUNNY   66  44  45 W14       29.91F
CHARLES CITY * MOSUNNY   66  36  32 W18G26    29.88F
CLINTON *      CLOUDY    67  42  40 W17       29.91F
DECORAH *      PTSUNNY   66  36  32 W9G23     29.85F
DUBUQUE        MOSUNNY   65  40  39 W17       29.89F
MONTICELLO *   MOSUNNY   68  41  37 W15G22    29.90F
OELWEIN *      MOSUNNY   64  41  42 W17G25    29.89F
WATERLOO       PTSUNNY   66  38  35 W13G26    29.90F
$$

IAZ064-065-067-068-078-032000-
   EAST CENTRAL IOWA

CITY           SKY/WX    TMP DP  RH WIND       PRES   REMARKS
DAVENPORT      PTSUNNY   67  38  34 W16G24    29.92F
IOWA CITY      MOSUNNY   67  42  40 W15       29.94F
MT. PLEASANT * MOSUNNY   68  39  34 W6        29.96F
MUSCATINE *    PTSUNNY   68  39  34 W16       29.94F
QUAD CITIES    PTSUNNY   68  38  33 W15G23    29.91F
$$

IAZ062-063-075>077-085>089-095>099-032000-
   SOUTHEAST IOWA

CITY           SKY/WX    TMP DP  RH WIND       PRES   REMARKS
BURLINGTON     PTSUNNY   66  42  41 SW10G17   29.95F
FAIRFIELD *    MOSUNNY   64  41  42 W12G18    29.96F
FORT MADISON * MOSUNNY   64  39  39 W3        29.97F
KEOKUK *       PTSUNNY   64  37  36 NW6G14    29.97F
OSKALOOSA *      N/A     66  39  37 W15       29.96F
OTTUMWA        MOSUNNY   66  42  41 W7        29.96F
WASHINGTON *   MOSUNNY   66  41  39 W12G21    29.96F
$$

ABBREVIATIONS USED IN REMARKS
   TC - TEMPERATURES IN CELSIUS
  WCI - WIND CHILL INDEX
   HX - HEAT INDEX
  VSB - VISIBILITY
$$





USA.gov is the U.S. government's official web portal to all federal, state and local government web resources and services.